465  
FPUS82 KCHS 201041  
OPUCHS  
 
TEST   
..KCHS/KSAV GATEWAY OBSERVATIONS
 
TEST  
NATIONAL WEATHER SERVICE CHARLESTON SC  
600 AM EDT WED SEP 20 2017  
 
NOTE: "FAIR" INDICATES FEW OR NO CLOUDS BELOW 12,000 FEET WITH NO  
SIGNIFICANT WEATHER AND/OR OBSTRUCTIONS TO VISIBILITY.  
 
SCZ050-WAZ558-NCZ071-TXZ119-213-PAZ071-DCZ001-FLZ074-172-MI076-  
NYZ176-178-MAZ016-IL014-TNZ027-NJZ106-GAZ044-MD014-201100-  
   
..GATEWAY OBSERVATIONS FOR CHARLESTON INTERNATIONAL
 
 
 
CITY SKY/WX TMP DP RH WIND PRES REMARKS  
CHAS AIRPORT MOCLDY 73 72 96 CALM 30.00R FOG  
SEATTLE CLOUDY 52 48 86 CALM 29.64F  
CHARLOTTE CLEAR 69 67 93 S3 30.00R  
DALLAS DFW PTCLDY 81 72 74 S16 29.82R  
DALLAS LOVE PTCLDY 80 71 74 S15 29.84R  
PHILLADELPHIA PTCLDY 71 62 73 N13 29.86R  
WASH NATIONAL MOCLDY 72 64 76 NW12 29.92R  
BALTIMORE CLOUDY 70 65 84 NW7 29.91R  
MIAMI PTCLDY 81 78 91 CALM 29.96R  
DETROIT FOG 66 65 96 CALM 29.96R VSB 1/4  
NEWARK MOCLDY 72 63 73 N17G28 29.83R  
LAGUARDIA MOCLDY 72 65 78 N13G22 29.81S  
J F K CLOUDY 72 64 76 N15 29.81R  
BOSTON LOGAN CLOUDY 65 65 100 N20 29.89R  
FT. LAUDERDALE PTCLDY 79 77 94 CALM 29.94R  
CHICAGO O'HARE PTCLDY 64 62 93 SE5 29.92R FOG  
CHICAGO MIDWAY CLEAR 66 64 93 CALM 29.92R  
HOUSTON BUSH MOCLDY 79 76 90 S6 29.90R  
HOUSTON HOBBY PTCLDY 80 76 87 S5 29.90R  
NASHVILLE PTCLDY 67 65 93 CALM 29.99R  
ATLANTA CLEAR 70 67 90 CALM 30.01S  
 

 
 
GAZ044-118-TXZ119-213-NCZ071-DCZ001-MDZ014-506-PAZ021-071-NJZ106-  
NYZ176-178-MAZ106-OHZ011-021-055-MIZ076-KYZ091-ILZ014-INZ047-  
MNZ060-ONZ431-201100-  
   
..GATEWAY OBSERVATIONS FOR SAVANNAH INTERNATIONAL
 
 
 
CITY SKY/WX TMP DP RH WIND PRES REMARKS  
SAVANNAH ARPT CLOUDY 75 71 87 SW6 30.00R  
ATLANTA CLEAR 70 67 90 CALM 30.01S  
CHARLOTTE CLEAR 69 67 93 S3 30.00R  
DALLAS DFW PTCLDY 81 72 74 S16 29.82R  
HOUSTON BUSH MOCLDY 79 76 90 S6 29.90R  
WASH NATIONAL MOCLDY 72 64 76 NW12 29.92R  
WASH DULLES PTCLDY 65 63 93 NW3 29.94S  
BALTIMORE CLOUDY 70 65 84 NW7 29.91R  
PHILADELPHIA PTCLDY 71 62 73 N13 29.86R  
NEWARK MOCLDY 72 63 73 N17G28 29.83R  
LAGUARDIA MOCLDY 72 65 78 N13G22 29.81S  
J F K CLOUDY 72 64 76 N15 29.81R  
BOSTON CLOUDY 65 65 100 N20 29.89R  
PITTSBURG PTCLDY 63 62 97 CALM 30.00R  
AKRON CLOUDY 67 63 87 CALM 30.00R  
CLEVELAND CLOUDY 69 65 86 CALM 29.99S  
CINCINNATI PTCLDY 64 64 100 CALM 29.98S FOG  
COLUMBUS CLOUDY 65 65 100 CALM 29.99R  
DETROIT FOG 66 65 96 CALM 29.96R VSB 1/4  
CHICAGO O'HARE PTCLDY 64 62 93 SE5 29.92R FOG  
MINNEAPOLIS MOCLDY 71 68 90 S7 29.61F  
INDIANAPOLIS PTCLDY 67 66 97 CALM 29.96R  
TORONTO CANADA CLEAR 66 63 88 N3 30.01S  
 

 
 
 
CLICK HERE TO GO TO PREVIOUS BULLETINS.

The Nexlab SC Page
The Nexlab GA Page Main Text Page